FW8106 Weather Reports


time (UTC)temp
C
wind
direction
speed
KPH
gust
KPH
rain 1hr
cm
rain 24hr
cm
rain mn
cm
humidity
%
barometer
mb
20260505034551 20 0 0.0 0.0 0.00 0.00 0.00 83 1017.6
20260505033053 20 0 0.0 0.0 0.00 0.00 0.00 83 1017.6
20260505031557 20 0 0.0 1.6 0.00 0.00 0.00 82 1017.4
20260505030055 20 0 0.0 0.0 0.00 0.00 0.00 82 1017.7
20260505024555 21 0 0.0 1.6 0.00 0.00 0.00 81 1017.4
20260505023054 21 0 0.0 4.8 0.00 0.00 0.00 79 1017.3
20260505021555 21 0 0.0 4.8 0.00 0.00 0.00 78 1017.3
20260505014556 22 0 0.0 6.4 0.00 0.00 0.00 75 1016.8
20260505013102 22 0 0.0 0.0 0.00 0.00 0.00 75 1016.4
20260505011555 23 152 1.6 6.4 0.00 0.00 0.00 74 1016.3
20260505010111 23 0 1.6 12.9 0.00 0.00 0.00 72 1016.0
20260505004555 23 70 3.2 9.7 0.00 0.00 0.00 72 1015.8
20260505003100 24 118 1.6 6.4 0.00 0.00 0.00 71 1015.8
20260505001604 24 80 0.0 8.0 0.00 0.00 0.00 69 1015.7
20260505000058 25 0 0.0 11.3 0.00 0.00 0.00 67 1015.4
20260504234555 25 172 0.0 4.8 0.00 0.00 0.00 66 1015.0
20260504233107 26 0 0.0 4.8 0.00 0.00 0.00 64 1015.1
20260504231558 26 152 3.2 19.3 0.00 0.00 0.00 63 1014.9
20260504230057 26 0 1.6 11.3 0.00 0.00 0.00 61 1014.9
20260504224554 27 0 1.6 6.4 0.00 0.00 0.00 60 1014.7
20260504223056 27 131 0.0 4.8 0.00 0.00 0.00 57 1014.7
20260504221555 28 106 0.0 6.4 0.00 0.00 0.00 54 1014.8
20260504220056 28 121 3.2 16.1 0.00 0.00 0.00 51 1014.8
20260504214556 29 180 1.6 9.7 0.00 0.00 0.00 51 1014.7
20260504213055 29 134 1.6 6.4 0.00 0.00 0.00 47 1014.8
20260504211552 29 79 1.6 11.3 0.00 0.00 0.00 49 1015.0
20260504210108 30 148 0.0 6.4 0.00 0.00 0.00 47 1015.1
20260504204602 29 36 3.2 12.9 0.00 0.00 0.00 48 1015.0
20260504203108 29 136 3.2 11.3 0.00 0.00 0.00 46 1015.1
20260504201555 29 102 1.6 16.1 0.00 0.00 0.00 47 1015.4
20260504200057 29 0 0.0 14.5 0.00 0.00 0.00 50 1015.5
20260504194602 28 150 3.2 12.9 0.00 0.00 0.00 49 1015.7
20260504193053 28 69 3.2 9.7 0.00 0.00 0.00 48 1015.9
20260504191555 28 53 3.2 11.3 0.00 0.00 0.00 48 1016.0
20260504190128 28 335 3.2 14.5 0.00 0.00 0.00 48 1016.1
20260504184556 27 139 4.8 12.9 0.00 0.00 0.00 49 1016.3
20260504183052 28 355 1.6 11.3 0.00 0.00 0.00 50 1016.6
20260504181555 29 360 1.6 8.0 0.00 0.00 0.00 50 1017.1
20260504180054 28 309 1.6 12.9 0.00 0.00 0.00 53 1017.2
20260504174601 28 176 4.8 12.9 0.00 0.00 0.00 52 1017.3
20260504173058 27 63 1.6 8.0 0.00 0.00 0.00 55 1017.5
20260504171553 27 33 3.2 11.3 0.00 0.00 0.00 55 1017.6
20260504081601 17 0 0.0 0.0 0.00 0.00 0.00 89 1017.1
20260504060115 17 0 0.0 0.0 0.00 0.00 0.00 88 1017.3
20260504050117 18 0 0.0 0.0 0.00 0.00 0.00 87 1017.7
20260504044553 18 0 0.0 0.0 0.00 0.00 0.00 87 1018.2
20260504043109 18 0 0.0 0.0 0.00 0.00 0.00 86 1018.5
20260504041555 18 0 0.0 0.0 0.00 0.00 0.00 86 1018.7